Location: De Har
(53.3413°N, 6.6858°E)
Time: 20:59:19
(UTC+00:00)

Spot 1 - Pass Details

Date: 22 April 2026
Orbit: 566 x 747 km, 98.7° (Epoch: 21 May)

Event Time Altitude Azimuth Distance (km) Brightness Sun altitude
Rises 00:40:43 0° 18° (NNE) 2,795 8.9 -22.9°
Reaches altitude 10° 00:42:52 10° 22° (NNE) 1,904 7.7 -22.8°
Maximum altitude 00:46:56 60° 103° (ESE) 685 4.2 -22.6°
Enters shadow 00:47:18 57° 129° (SE) 705 4.1 -22.6°
